Regional Weather Roundup
Issued by NWS

Home | Current Version | Previous Version | Text Only | Print | Product List | Glossary Off
Versions: 1 2 3 4 5 6 7 8 9 10 11 12 13 14 15 16 17 18 19 20 21 22 23 24 25 26 27 28 29 30 31 32 33 34 35 36 37 38 39 40 41 42 43 44 45 46 47 48 49 50

000
ASUS45 KTFX 030804
RWRMT
MONTANA REGIONAL WEATHER ROUNDUP
NATIONAL WEATHER SERVICE GREAT FALLS MT
200 AM MDT THU SEP 03 2015

NOTE: "FAIR" INDICATES FEW OR NO CLOUDS BELOW 12000 FEET WITH NO
SIGNIFICANT WEATHER AND/OR OBSTRUCTIONS TO VISIBILITY.

MTZ001>007-043-030900-
WEST OF THE DIVIDE

CITY           SKY/WX    TMP DP  RH WIND       PRES   REMARKS
KALISPELL      CLOUDY    53  37  54 CALM      29.88S
MISSOULA       CLOUDY    56  43  61 NW10      29.91S
BUTTE          PTCLDY    48  38  68 SE5       29.92S
MULLAN PASS    CLOUDY    41  35  79 S3        29.94F
DEER LODGE       N/A     54  39  58 N9        29.94R
EUREKA           N/A     52  39  62 NW6       29.89R
HAMILTON         N/A     57  41  54 NW8       29.89S
LIBBY            N/A     50  37  62 CALM      29.89R
$$

MTZ008-052>055-030900-
SOUTHWEST MONTANA

CITY           SKY/WX    TMP DP  RH WIND       PRES   REMARKS
BOZEMAN        MOCLDY    53  39  59 S7        29.82S
DILLON           N/A    N/A N/A N/A MISG      29.84S
W YELLOWSTONE  MOCLDY    46  30  53 S3        29.97F
$$

MTZ009-010-012-014-046-048-049-054-030900-
EAST SLOPES AND CENTRAL MONTANA

CITY           SKY/WX    TMP DP  RH WIND       PRES   REMARKS
CUT BANK       CLOUDY    56  37  49 W13       29.87F
GREAT FALLS    CLOUDY    57  37  47 NE9       29.88R
HELENA         PTCLDY    61  40  45 W9        29.83R
$$

MTZ011-013-016-021-045-047-050-051-030900-
NORTH CENTRAL MONTANA

CITY           SKY/WX    TMP DP  RH WIND       PRES   REMARKS
HAVRE          CLOUDY    64  35  34 N6        29.81F
LEWISTOWN      PTCLDY    51  37  58 S7        29.87F
N BAR RANCH      N/A     55  36  47 NW8       29.89S
CHINOOK          N/A     61  39  44 CALM      29.80F
FORT BENTON      N/A     61  37  41 NW5       29.85R
$$

MTZ017>020-022>027-061-062-030900-
NORTHEAST MONTANA

CITY           SKY/WX    TMP DP  RH WIND       PRES   REMARKS
GLASGOW        PTCLDY    71  37  28 NW15      29.72R
JORDAN           N/A     71  37  28 N24G36    29.72R
SIDNEY         PTCLDY    63  46  55 CALM        N/A
WOLF POINT     MOCLDY    77  44  30 NE18G31   29.64R
PLENTYWOOD       N/A     72  45  37 N15       29.68S
POPLAR           N/A     72  43  35 N10       29.66R
$$

MTZ028>42-056>058-030900-
SOUTHCENTRAL AND SOUTHEAST MONTANA

CITY           SKY/WX    TMP DP  RH WIND       PRES   REMARKS
BAKER          CLEAR     68  52  56 SE12      29.68F
BILLINGS       PTCLDY    70  33  25 N13       29.80R
LIVINGSTON     PTCLDY    58  33  39 SE5       29.83R
MILES CITY     PTCLDY    66  43  43 N5        29.64R
FORSYTH          N/A     73  39  29 W14       29.66R
$$

REGIONAL REPORTS...DAKOTAS

CITY           SKY/WX    TMP DP  RH WIND       PRES   REMARKS
WILLISTON      MOCLDY    67  54  63 CALM      29.64S
MINOT          MOCLDY    71  67  87 SE9       29.67F
DICKINSON      CLEAR     68  59  73 SE10      29.68F
BISMARCK       PTCLDY    70  69  97 E7        29.70F
GRAND FORKS    CLEAR     70  67  90 SE13      29.78F
FARGO          CLEAR     72  68  87 SE14G20   29.80S
BUFFALO SD       N/A     69  55  60 S8        29.66F
RAPID CITY     CLEAR     65  46  50 SE3       29.79S
$$

REGIONAL REPORTS...WYOMING/IDAHO/WASHINGTON

CITY           SKY/WX    TMP DP  RH WIND       PRES   REMARKS
GILLETTE       CLEAR     76  34  21 SW17      29.82F
SHERIDAN       PTCLDY    64  39  39 S5        29.78S
BUFFALO WY     MOCLDY    76  35  22 CALM      29.86S
CODY           CLOUDY    70  36  28 SW12      29.87F
YELLOWSTONE LA   N/A     43  35  73 NW3       30.09F
IDAHO FALLS    MOCLDY    61  46  57 S3        29.82F
SALMON         PTCLDY    50  37  62 SW5       29.79R
BOISE          MOCLDY    62  42  47 W12       29.79R
SPOKANE        PTCLDY    53  42  66 S12       29.86S
$$

REGIONAL REPORTS...ALBERTA

CITY           SKY/WX    TMP DP  RH WIND       PRES   REMARKS
$$

REGIONAL REPORTS...SASKATCHEWAN

CITY           SKY/WX    TMP DP  RH WIND       PRES   REMARKS
$$



USA.gov is the U.S. government's official web portal to all federal, state and local government web resources and services.